TimeAKDT,TemperatureF,Dew PointF,Humidity,Sea Level PressureIn,VisibilityMPH,Wind Direction,Wind SpeedMPH,Gust SpeedMPH,PrecipitationIn,Events,Conditions,WindDirDegrees,DateUTC
12:53 AM,54.0,53.1,97,29.98,10.0,ENE,3.5,-,0.02,Rain,Light Rain,70,2013-06-27 08:53:00
1:53 AM,53.1,52.0,96,29.99,10.0,Calm,Calm,-,0.00,Rain,Light Rain,0,2013-06-27 09:53:00
2:53 AM,52.0,50.0,93,30.00,10.0,Calm,Calm,-,0.01,Rain,Light Rain,0,2013-06-27 10:53:00
3:53 AM,52.0,51.1,97,30.01,6.0,Calm,Calm,-,0.03,Rain,Light Rain,0,2013-06-27 11:53:00
4:18 AM,53.1,52.0,96,30.01,5.0,Calm,Calm,-,0.04,Rain,Rain,0,2013-06-27 12:18:00
4:53 AM,53.1,52.0,96,30.01,5.0,Calm,Calm,-,0.10,Rain,Rain,0,2013-06-27 12:53:00
5:53 AM,53.1,52.0,96,30.02,4.0,Calm,Calm,-,0.12,Rain,Light Rain,0,2013-06-27 13:53:00
6:53 AM,54.0,53.1,97,30.03,8.0,Calm,Calm,-,0.03,Rain,Light Rain,0,2013-06-27 14:53:00
7:53 AM,54.0,54.0,100,30.04,5.0,ESE,4.6,-,0.04,Rain,Light Rain,110,2013-06-27 15:53:00
8:42 AM,55.0,54.0,96,30.05,7.0,East,9.2,-,0.03,Rain,Light Rain,100,2013-06-27 16:42:00
8:53 AM,55.0,54.0,96,30.05,8.0,ENE,8.1,-,0.04,Rain,Light Rain,70,2013-06-27 16:53:00
9:53 AM,55.0,53.1,93,30.06,7.0,East,12.7,-,0.03,Rain,Light Rain,90,2013-06-27 17:53:00
10:53 AM,55.9,54.0,93,30.08,10.0,East,10.4,-,0.03,Rain,Light Rain,90,2013-06-27 18:53:00
11:31 AM,57.0,54.0,89,30.08,8.0,East,11.5,-,0.01,Rain,Light Rain,100,2013-06-27 19:31:00
11:53 AM,57.0,54.0,89,30.09,10.0,East,12.7,-,0.01,Rain,Light Rain,90,2013-06-27 19:53:00
12:35 PM,57.0,54.0,89,30.09,10.0,East,11.5,-,0.00,Rain,Light Rain,100,2013-06-27 20:35:00
12:53 PM,57.0,54.0,89,30.10,10.0,ESE,11.5,-,0.00,Rain,Light Rain,110,2013-06-27 20:53:00
1:53 PM,59.0,55.0,87,30.11,10.0,East,12.7,-,0.00,Rain,Light Rain,90,2013-06-27 21:53:00
2:53 PM,59.0,53.1,81,30.12,10.0,East,10.4,-,0.00,,Overcast,90,2013-06-27 22:53:00
3:53 PM,57.9,54.0,87,30.13,10.0,SW,4.6,-,0.00,Rain,Light Rain,230,2013-06-27 23:53:00
4:53 PM,57.9,54.0,87,30.13,10.0,SW,6.9,-,0.00,,Overcast,220,2013-06-28 00:53:00
5:36 PM,59.0,55.0,87,30.13,10.0,WSW,4.6,-,0.00,,Overcast,250,2013-06-28 01:36:00
5:53 PM,59.0,55.0,87,30.13,10.0,WSW,5.8,-,0.00,,Overcast,240,2013-06-28 01:53:00
6:53 PM,62.1,55.0,78,30.13,10.0,Calm,Calm,-,N/A,,Overcast,0,2013-06-28 02:53:00
7:53 PM,59.0,55.0,87,30.14,10.0,WSW,3.5,-,N/A,,Overcast,250,2013-06-28 03:53:00
8:53 PM,57.9,54.0,87,30.14,10.0,Calm,Calm,-,N/A,,Overcast,0,2013-06-28 04:53:00
9:53 PM,55.9,52.0,87,30.15,10.0,Calm,Calm,-,N/A,,Overcast,0,2013-06-28 05:53:00
10:53 PM,54.0,52.0,93,30.16,10.0,Calm,Calm,-,N/A,,Overcast,0,2013-06-28 06:53:00
11:53 PM,53.1,51.1,93,30.17,10.0,Calm,Calm,-,N/A,,Overcast,0,2013-06-28 07:53:00